Terminal Aerodrome Forecast
Issued by NWS Greer, SC

Home | Current Version | Previous Version | Text Only | Print | Product List | Glossary On
Versions: 1 2 3 4 5 6 7 8 9 10 11 12 13 14 15
242
FTUS42 KGSP 121509 AAB
TAFGSP
TAF AMD
KGSP 121509Z 1215/1312 03005KT P6SM SCT035 OVC090
      TEMPO 1215/1217 1 1/2SM -SN BKN035
     FM122000 28005KT P6SM BKN050
     FM122100 23006KT P6SM SCT050
     FM122300 25007KT P6SM SCT250
     FM130500 29006KT P6SM FEW250=

USA.gov is the U.S. government's official web portal to all federal, state and local government web resources and services.